Regional Weather Roundup
Issued by NWS

Home | Current Version | Previous Version | Text Only | Print | Product List | Glossary Off
Versions: 1 2 3 4 5 6 7 8 9 10 11 12 13 14 15 16 17 18 19 20 21 22 23 24 25 26 27 28 29 30 31 32 33 34 35 36 37 38 39 40 41 42 43 44 45 46 47 48 49 50

000
ASUS43 KDMX 250303
RWRIA

WEATHER ROUNDUP FOR IOWA
NATIONAL WEATHER SERVICE DES MOINES IA
1000 PM CDT SUN JUL 24 2016

NOTE: "FAIR" INDICATES FEW OR NO CLOUDS BELOW 12,000 FEET WITH NO
SIGNIFICANT WEATHER AND/OR OBSTRUCTIONS TO VISIBILITY.

* - THESE STATIONS ARE NOT NWS STATIONS...THUS NOT UNDER NWS
QUALITY CONTROL.  THEY ALSO DO NOT REPORT WEATHER SUCH
AS PRECIPITATION OR FOG.

IAZ001>003-012>014-020>022-031>034-043>046-250400-
   NORTHWEST IOWA

CITY           SKY/WX    TMP DP  RH WIND       PRES   REMARKS
CARROLL *      PTCLDY    72  68  88 NW5       30.03S
CHEROKEE *     CLEAR     69  65  88 CALM      30.06R
LE MARS *      CLOUDY    70  66  88 CALM      30.08R
SHELDON *      CLEAR     66  64  94 SW5       30.06R
SIOUX CITY     CLEAR     69  65  86 W5        30.07R
SPENCER        CLEAR     66  63  90 SW6       30.05R
STORM LAKE *   PTCLDY    68  64  88 NW6       30.07R
$$

IAZ055>058-069>071-079>083-090>094-250400-
   SOUTHWEST IOWA

CITY           SKY/WX    TMP DP  RH WIND       PRES   REMARKS
ATLANTIC *     CLEAR     72  70  94 CALM      30.02R
CLARINDA *       N/A     77  70  78 MISG      30.01R
COUNCIL BLFS *   N/A     73  68  83 N7        30.03R
CRESTON *      CLOUDY    75  66  73 N6        30.04R
HARLAN  *      CLOUDY    72  70  94 CALM      30.07R
LAMONI         CLOUDY    74  68  81 N8        30.00R
RED OAK *      CLOUDY    73  72  94 N6        30.01R
SHENANDOAH *   CLOUDY    73  70  88 W3        30.01R
$$

IAZ047>049-059>061-072>074-084-250400-
   CENTRAL IOWA

CITY           SKY/WX    TMP DP  RH WIND       PRES   REMARKS
AMES           CLOUDY    72  67  84 NW6       30.01R
ANKENY *         N/A    N/A N/A N/A MISG        N/A
BOONE *          N/A     72  66  83 NW8       30.02R
CHARITON *       N/A    N/A N/A N/A MISG        N/A
DES MOINES     CLOUDY    79  65  62 N6        29.99R HX  81
GRINNELL*      CLOUDY    73  66  80 NW3       30.00R
KNOXVILLE *    CLOUDY    75  68  78 N5        29.99R
MARSHALLTOWN   CLOUDY    70  68  93 NW8       29.98R
NEWTON *       CLOUDY    75  68  78 N7        29.99R
PELLA *        CLOUDY    73  69  86 CALM      30.01R
PERRY *          N/A     73  69  88 N9        30.01S
$$

IAZ004>006-015-016-023>025-035-036-250400-
   NORTH CENTRAL IOWA

CITY           SKY/WX    TMP DP  RH WIND       PRES   REMARKS
ALGONA *       PTCLDY    70  66  88 W6        30.04R
ESTHERVILLE    CLEAR     67  65  93 W7        30.04R
FORT DODGE *   CLOUDY    72  66  83 NW3       30.04R
MASON CITY     MOCLDY    68  64  87 W8        30.03R
FOREST CITY *    N/A     66  63  88 W3        30.03R
IOWA FALLS *     N/A     70  66  87 NW6       30.03R
$$

IAZ007>011-017>019-026>030-037>042-050>054-066-250400-
   NORTHEAST IOWA

CITY           SKY/WX    TMP DP  RH WIND       PRES   REMARKS
CEDAR RAPIDS   CLOUDY    72  70  93 NW8       29.96R
CHARLES CITY * CLOUDY    70  68  94 W5        30.00R
CLINTON *      CLOUDY    72  70  93 W5        29.92S
DECORAH *      CLEAR     70  66  88 W5        29.97R
DUBUQUE        CLOUDY    72  67  84 NW9       29.96R
MONTICELLO *   PTCLDY    72  68  88 W6        29.96R
OELWEIN *      CLOUDY    70  66  88 NW7       29.99R
WATERLOO       CLOUDY    71  64  78 NW6       29.97R
$$

IAZ064-065-067-068-078-250400-
   EAST CENTRAL IOWA

CITY           SKY/WX    TMP DP  RH WIND       PRES   REMARKS
DAVENPORT      CLOUDY    71  69  93 CALM      29.94R
IOWA CITY      CLOUDY    78  67  68 NW12      29.96R HX  80
MUSCATINE *    CLOUDY    77  70  78 NW6       29.94R
QUAD CITIES    CLOUDY    81  66  60 W3        29.92R HX  83
$$

IAZ062-063-075>077-085>089-095>099-250400-
   SOUTHEAST IOWA

CITY           SKY/WX    TMP DP  RH WIND       PRES   REMARKS
BURLINGTON     LGT RAIN  78  74  87 N9        29.91F HX  81
FAIRFIELD *    CLOUDY    75  70  83 N8        29.96R
KEOKUK *       CLOUDY    73  72  94 N5        29.92S
CENTERVILLE *    N/A     75  68  78 CALM      30.00R
OTTUMWA        CLOUDY    74  68  81 NW7       29.97R
WASHINGTON *   CLOUDY    73  70  88 NW6       29.97R
$$

ABBREVIATIONS USED IN REMARKS
   TC - TEMPERATURES IN CELSIUS
  WCI - WIND CHILL INDEX
   HX - HEAT INDEX
  VSB - VISIBILITY
$$




USA.gov is the U.S. government's official web portal to all federal, state and local government web resources and services.